RH
14 14 14 13 13 13 13 12 12 12 11 11 11 10 11 10 10 10 10 10 10 10 10 10 10 10 9 9 8 8 8 7 8 8 8 8 7 8 6 7 6 7 8 8 8 8 8 7 6 4 5 6 7 12 10 15 16 32 76 99 102 98 95 101 101 95 97 99 97 96 87 67 46 29 34 33 24 25 22 17 11 11 12 9 11 12 14 14
15 15 15 14 14 13 13 13 12 12 11 11 11 10 10 10 10 10 10 10 10 10 9 10 9 10 10 9 9 8 8 8 8 8 8 8 8 8 7 6 6 6 7 8 8 8 8 7 7 5 5 5 7 11 10 15 16 21 61 98 104 98 99 101 95 93 95 98 100 97 98 99 65 31 38 35 27 29 24 19 12 11 12 9 10 11 14 14
16 16 15 15 14 13 13 12 12 12 11 11 11 11 10 10 10 10 10 10 10 10 9 10 9 9 10 10 10 9 9 8 8 7 7 8 8 8 8 7 6 6 6 7 8 8 8 8 7 5 5 5 6 10 11 13 16 25 56 91 102 99 98 96 93 90 90 97 101 98 100 105 71 36 44 39 30 34 31 23 12 11 12 9 10 10 14 14
16 15 15 15 14 14 13 12 12 12 11 11 11 11 10 10 10 10 10 10 9 10 9 9 9 9 9 9 10 10 10 9 8 8 7 7 8 8 8 8 7 5 6 7 8 8 8 8 8 7 4 5 6 8 12 11 15 25 43 79 102 101 92 85 95 97 95 99 99 100 99 95 65 36 46 45 35 40 40 30 15 12 12 9 10 10 13 14
15 15 15 14 14 13 13 13 12 12 11 11 11 10 10 10 10 10 10 10 9 9 9 9 9 9 8 9 9 9 10 10 9 8 7 7 7 8 8 8 8 6 6 6 7 8 8 9 8 8 5 4 7 7 11 11 14 22 39 82 103 98 91 83 95 101 99 102 98 102 98 93 76 41 43 50 44 46 46 38 22 14 14 10 9 10 12 13
16 15 15 14 14 13 13 13 12 12 12 11 11 10 10 10 10 10 9 10 9 9 9 9 9 9 9 8 8 9 9 10 10 8 8 7 7 7 7 8 8 7 6 5 7 8 7 9 8 8 6 4 6 7 10 10 13 20 37 82 101 95 98 93 99 100 98 102 97 102 97 100 91 45 40 52 50 51 46 44 32 18 15 12 9 10 12 13
16 15 15 15 14 13 12 12 12 11 12 11 11 10 10 10 9 10 9 9 9 9 9 9 9 8 9 8 8 8 9 10 9 9 9 8 7 6 7 7 8 7 6 6 5 7 7 8 8 8 7 5 6 6 10 9 13 18 25 72 102 97 100 98 99 100 99 102 97 101 97 102 91 45 39 51 52 54 47 49 42 24 17 14 11 9 12 13
16 15 15 15 14 13 12 12 12 11 11 11 11 10 10 10 9 9 9 9 9 9 9 8 9 8 9 8 8 8 8 9 9 10 9 9 9 7 7 6 7 8 6 7 5 6 7 7 8 8 7 6 6 6 9 9 11 15 21 64 101 99 100 98 100 100 95 98 98 101 98 102 92 49 41 51 54 56 49 53 50 32 20 15 12 10 11 13
16 15 14 14 14 13 13 12 11 11 11 10 10 10 10 10 9 9 9 9 8 9 8 8 9 8 9 8 8 9 8 9 9 9 9 9 10 8 8 6 7 8 7 7 6 6 6 7 8 8 9 6 6 6 8 11 9 14 28 65 96 101 99 95 101 95 82 92 100 101 98 102 96 58 45 55 56 56 51 54 55 41 25 17 13 10 11 13
16 15 14 13 13 13 12 12 11 11 11 10 10 10 10 9 9 10 9 9 9 8 8 8 9 8 8 8 8 9 9 9 9 9 9 9 10 9 9 8 7 7 7 7 6 6 5 7 8 8 9 6 7 7 6 10 9 14 33 64 92 101 96 93 102 93 80 93 100 100 98 101 97 63 50 58 59 59 53 55 60 51 32 20 15 11 11 12
15 14 13 13 13 13 12 12 11 11 11 10 10 10 10 10 9 10 9 9 9 8 9 8 9 8 9 9 8 9 9 9 9 9 9 8 9 10 10 9 8 7 7 8 6 6 5 6 9 8 9 7 7 7 7 9 9 12 26 60 96 101 96 96 102 98 91 98 100 100 99 101 99 68 52 59 62 63 56 56 63 58 42 24 17 12 10 13
14 13 13 13 13 13 12 12 11 11 11 10 11 10 10 10 10 10 9 10 9 9 9 9 9 9 9 9 8 9 9 9 9 8 9 8 8 9 11 10 9 8 6 7 7 6 6 6 8 8 8 8 7 8 8 8 10 10 14 53 99 102 98 100 99 100 99 98 93 92 94 100 102 79 58 55 61 67 58 57 64 61 51 31 19 14 10 12
14 14 13 13 12 13 12 12 11 11 11 11 11 11 11 11 10 11 10 10 10 10 10 10 10 9 9 9 9 9 8 9 9 8 8 8 9 8 10 10 10 9 7 7 7 7 6 5 7 9 8 8 8 7 8 7 10 10 15 59 102 101 99 104 102 102 101 97 85 81 90 99 102 92 70 51 56 69 60 59 67 63 56 40 23 15 11 13
14 14 13 13 12 12 12 12 12 11 11 11 12 12 12 12 12 12 12 11 11 11 11 10 10 10 9 9 9 9 8 9 9 9 8 7 9 8 8 10 10 10 9 7 7 7 6 6 6 8 9 9 8 7 8 7 8 9 18 62 99 99 100 103 102 104 102 101 93 88 95 97 100 101 81 51 48 64 63 62 70 65 58 48 29 16 11 12
14 14 13 13 12 12 12 12 12 12 12 12 12 13 12 13 13 12 12 12 12 12 11 11 10 10 10 9 9 10 9 9 10 9 9 8 8 9 8 9 9 10 9 8 6 7 7 6 6 8 9 9 8 7 8 7 10 8 13 58 97 98 102 101 98 102 100 100 100 98 100 96 96 99 86 57 45 58 63 64 69 66 61 53 36 19 11 13
14 14 13 12 12 12 12 12 12 13 13 13 13 13 13 13 13 13 13 13 12 12 11 11 11 11 10 10 10 11 11 10 11 10 10 10 9 10 9 8 9 9 10 9 7 6 7 6 6 7 8 9 8 7 9 7 9 8 13 58 88 81 92 102 97 100 99 99 100 99 101 97 91 94 93 71 51 57 64 66 69 66 62 56 42 23 11 13
14 13 13 12 12 12 13 13 14 14 14 13 13 13 13 14 14 14 13 13 12 12 12 11 12 11 11 11 11 11 11 10 11 11 11 11 11 11 10 9 9 9 9 9 8 6 7 7 6 7 8 9 8 7 10 8 9 9 11 46 74 73 88 101 98 99 98 98 100 99 101 98 88 85 93 89 72 68 67 69 73 68 64 57 46 28 12 12
13 13 13 13 13 14 14 14 14 14 14 13 13 13 14 14 14 14 14 13 13 13 13 12 12 12 12 12 12 11 11 11 11 11 11 11 12 11 10 10 9 9 9 9 9 7 6 7 6 7 7 9 9 8 9 7 9 10 10 42 78 89 96 99 99 100 98 99 100 99 97 97 92 79 84 98 95 85 72 70 77 70 64 60 49 32 14 11
13 13 13 14 15 15 15 15 14 13 13 13 14 15 15 15 14 14 15 14 14 14 14 14 13 13 13 12 12 11 11 11 11 11 11 11 11 11 10 10 9 9 9 9 10 7 6 7 6 6 7 8 10 9 9 8 9 8 17 56 88 92 95 99 100 100 99 100 100 97 95 97 99 83 79 95 102 97 81 72 77 72 64 62 51 35 17 11
13 14 14 16 16 15 15 14 13 13 13 14 15 16 17 18 18 16 17 16 16 16 15 15 14 13 13 12 11 11 10 10 10 10 10 10 10 10 10 10 9 9 9 9 9 8 6 6 7 7 6 8 9 9 9 8 10 9 17 51 78 81 89 98 100 100 100 101 99 98 97 99 103 87 75 90 101 102 93 78 77 73 66 63 54 37 20 12
14 15 16 16 16 15 14 13 13 14 15 16 18 19 20 21 20 18 17 18 17 17 16 15 14 13 13 12 12 11 10 10 9 9 9 9 9 10 10 10 10 9 9 9 9 9 7 6 7 7 6 8 9 9 10 8 10 16 19 35 58 69 80 93 100 101 99 100 99 98 100 101 105 88 68 81 99 102 99 89 80 73 68 65 55 40 25 15
16 17 17 16 15 14 13 14 15 16 17 20 22 24 24 23 21 20 19 18 17 16 15 14 14 14 13 13 12 11 11 10 9 9 9 9 9 10 10 10 10 9 8 8 8 9 8 7 7 7 6 7 9 9 9 10 8 14 20 26 45 58 63 78 94 99 99 101 99 98 101 101 103 91 66 74 96 101 101 97 88 77 70 67 56 42 31 18
18 17 16 16 15 14 15 16 17 20 22 25 27 27 26 24 22 21 20 18 17 16 15 16 15 15 14 13 13 12 11 11 10 10 10 10 10 10 11 10 11 10 9 8 8 10 9 8 7 6 7 5 9 10 8 11 8 9 15 22 41 49 45 66 93 99 99 100 99 98 100 99 104 97 75 74 89 97 102 101 95 83 71 67 59 47 37 22
18 17 16 15 14 15 16 18 21 27 29 29 29 27 24 23 22 21 20 18 17 17 17 17 16 16 15 14 13 13 12 11 11 10 10 10 9 10 11 11 11 10 10 9 8 10 9 8 7 6 7 6 7 10 8 10 9 7 13 26 45 48 48 77 101 100 98 99 99 100 96 95 103 103 88 85 89 94 101 101 98 90 76 70 63 53 43 28
17 17 16 15 16 17 18 23 31 35 33 31 28 26 24 23 22 21 20 18 18 19 19 18 17 16 16 15 14 13 12 11 10 9 8 8 7 9 10 11 12 11 10 10 9 10 9 8 7 5 6 6 6 9 9 9 9 8 11 25 44 55 70 95 102 97 100 100 98 101 100 95 99 102 96 94 95 95 99 101 100 95 82 73 67 60 51 36
17 16 16 17 17 18 24 35 40 38 34 31 27 26 24 22 22 21 21 21 20 20 20 18 17 16 16 15 14 13 12 11 10 9 8 8 7 7 8 10 12 12 11 11 10 10 9 8 7 6 6 6 7 8 9 9 9 8 9 17 36 63 87 100 100 99 101 100 99 102 103 99 97 100 98 95 95 95 98 101 101 99 89 76 70 67 60 44
17 17 17 19 18 23 37 44 42 37 33 30 26 25 23 22 23 23 24 23 22 21 19 18 17 17 16 15 14 13 13 12 11 10 9 9 9 7 7 9 11 12 11 11 11 10 10 8 7 6 6 6 6 8 9 9 9 9 8 8 26 67 98 102 102 103 100 101 102 100 100 99 98 100 100 98 96 91 93 100 102 102 97 82 72 72 69 55
17 18 19 18 21 35 48 46 41 38 34 30 27 26 25 24 24 24 25 24 22 20 18 18 17 16 15 14 15 15 15 14 12 12 11 10 11 9 8 8 11 13 11 12 12 11 10 9 7 6 6 6 7 7 9 9 8 9 10 7 20 62 99 107 105 103 101 101 101 99 99 99 99 100 98 99 99 91 90 95 96 101 104 90 77 74 74 65
18 20 19 20 31 48 51 45 43 39 34 31 28 28 27 26 25 25 25 23 21 19 18 18 16 15 16 15 16 17 16 16 14 15 14 12 11 11 9 8 11 13 13 13 13 12 11 9 7 6 6 7 7 7 8 9 9 8 10 10 18 48 79 94 100 101 101 101 99 99 100 99 99 98 98 101 102 96 90 85 82 95 105 96 86 80 75 70
20 20 19 27 43 52 48 46 45 39 35 32 30 30 29 26 26 26 25 23 21 19 18 17 16 16 17 17 18 19 18 18 17 17 17 14 12 13 10 8 11 13 14 15 14 14 13 10 7 6 6 7 6 7 8 8 9 9 10 9 13 33 60 81 97 101 101 101 99 99 99 99 100 99 96 98 101 99 94 85 78 90 102 96 91 87 78 74
21 20 22 38 50 50 48 50 46 40 36 33 32 32 29 27 27 27 26 23 21 20 17 16 17 18 19 19 20 21 21 21 20 19 19 16 13 14 12 9 12 15 15 16 15 15 15 12 9 6 5 6 6 7 7 8 9 9 10 9 8 21 45 77 100 102 100 101 99 99 99 100 101 94 85 88 96 93 86 84 79 84 98 98 94 92 84 77
21 21 31 47 51 48 52 52 47 42 37 34 34 33 30 29 29 28 26 23 22 20 17 17 19 20 20 21 22 23 24 24 22 21 19 18 14 13 13 11 12 15 17 17 15 15 15 12 10 7 6 6 6 6 7 8 9 8 10 10 9 12 26 64 101 103 99 101 99 99 99 99 99 87 78 88 97 89 77 75 73 76 91 101 100 99 94 81
21 25 40 50 48 50 56 55 49 45 39 36 36 33 32 32 30 30 26 23 22 19 18 20 20 21 22 24 26 27 26 24 23 22 20 18 15 14 14 12 13 16 17 17 16 15 15 13 11 8 6 6 6 7 7 8 9 9 10 9 10 10 14 54 99 104 98 100 98 100 99 99 101 90 81 90 101 100 89 75 67 68 81 97 102 101 100 89
22 32 46 47 47 55 60 58 53 47 41 40 37 34 35 34 32 32 26 23 23 19 19 21 21 22 24 28 32 32 28 24 23 23 21 19 16 15 14 12 13 16 17 17 16 15 15 14 12 8 6 6 6 7 7 8 9 9 10 9 10 10 12 52 101 102 95 101 98 99 101 98 102 97 87 90 101 105 97 79 67 61 63 83 100 101 100 94
26 38 45 44 51 60 63 61 54 48 46 43 39 37 37 34 33 33 28 25 24 20 20 22 21 24 26 32 39 38 31 25 24 24 22 20 18 15 14 12 13 15 17 18 17 16 15 13 12 10 7 6 7 8 7 8 9 9 10 9 11 10 9 48 99 102 93 102 100 98 102 98 101 100 90 91 101 99 86 76 71 62 50 64 93 102 101 97
31 40 41 43 56 65 66 62 54 51 50 45 41 40 38 35 35 34 29 27 24 20 21 22 22 26 29 36 45 45 37 28 26 26 24 23 20 16 15 13 14 16 17 18 18 18 17 14 13 10 8 6 7 8 7 8 8 8 11 9 10 11 7 36 91 108 101 104 102 99 101 99 100 102 90 88 97 88 71 71 81 74 52 55 87 102 102 101
34 37 37 47 62 69 68 61 56 55 52 46 44 43 39 36 38 36 30 28 25 20 22 22 23 27 31 41 49 47 39 33 31 28 25 26 23 18 16 15 14 16 18 19 18 19 19 16 13 9 7 6 7 8 8 8 8 8 10 10 9 11 9 22 63 96 105 105 102 99 101 99 99 102 91 81 89 84 68 73 91 86 62 59 88 103 101 103
34 33 37 53 68 72 68 62 60 59 53 48 47 44 39 37 41 39 32 30 25 21 22 23 24 27 32 46 57 50 40 37 37 32 27 27 25 20 17 16 15 16 19 20 18 18 19 17 13 9 8 7 6 8 8 7 8 9 9 10 10 10 11 14 29 60 91 105 104 100 100 100 99 102 93 76 78 81 72 76 91 93 78 68 85 102 102 102
32 31 41 61 73 73 70 65 64 60 54 52 50 46 40 39 43 42 34 31 26 21 23 23 25 29 35 50 63 57 44 37 37 37 29 26 27 23 18 16 15 17 19 20 19 19 18 17 15 12 9 8 8 8 9 8 8 9 9 9 11 10 10 13 15 32 69 99 106 101 99 100 98 101 97 78 70 75 76 83 95 99 96 82 75 88 102 104
30 33 50 71 78 73 69 68 65 61 58 57 52 47 42 41 46 44 37 33 26 22 24 23 26 31 38 55 68 64 51 38 37 40 35 29 29 24 20 17 16 17 20 20 20 19 18 17 16 14 10 9 9 8 8 9 7 8 10 9 11 11 9 11 14 25 58 94 107 102 99 100 99 101 99 82 69 71 75 87 101 103 104 98 76 73 93 102
31 42 62 75 76 72 72 73 70 65 64 61 54 49 44 44 50 48 40 34 27 24 25 24 26 29 38 60 75 69 55 41 38 43 41 37 34 27 21 19 16 17 19 20 19 17 17 17 15 14 12 9 9 8 7 8 8 8 10 10 10 11 10 10 13 25 59 98 110 102 99 100 99 101 100 84 71 73 77 89 105 105 105 105 84 71 88 101
34 59 78 76 75 81 84 80 75 70 67 62 55 50 45 46 53 51 42 37 29 24 26 26 26 29 38 61 76 69 57 44 39 42 44 45 42 32 23 19 17 18 19 20 20 18 17 17 15 14 13 11 8 8 7 7 8 8 9 11 11 11 11 11 13 23 54 95 110 101 99 102 99 100 101 87 75 78 80 80 88 96 102 107 94 80 89 101
45 75 86 79 80 89 89 82 77 73 69 63 56 50 45 48 55 53 46 40 31 25 27 26 27 31 37 54 70 69 60 48 39 41 45 47 47 37 24 19 18 19 21 22 20 20 20 18 17 16 16 15 10 8 9 7 7 9 8 11 12 12 13 12 13 18 36 76 105 102 98 101 99 101 102 90 83 89 87 73 65 73 91 109 105 87 82 90
61 80 80 79 85 89 86 82 79 74 68 63 57 49 46 50 56 57 52 44 34 27 28 28 28 31 34 49 69 73 65 55 44 43 45 45 48 41 26 20 22 21 23 24 20 20 22 20 19 20 20 19 13 9 9 8 8 9 8 11 11 10 16 15 14 18 23 52 94 103 98 102 102 102 102 94 93 100 99 83 61 56 79 108 109 88 77 83
72 78 75 82 89 87 84 82 81 76 68 63 56 49 48 51 56 61 60 51 39 29 29 29 28 30 33 48 71 76 68 60 49 44 43 42 46 49 35 22 22 23 22 23 21 20 23 22 20 21 21 19 14 10 9 8 9 10 8 11 11 9 16 16 13 19 18 35 82 104 97 100 103 100 101 99 97 101 102 93 69 51 68 101 108 93 85 86
74 77 81 87 89 86 82 81 85 82 70 63 56 48 51 55 58 65 67 61 47 32 29 31 29 30 33 46 68 74 66 60 52 44 42 40 45 56 50 28 21 24 23 23 24 23 24 23 21 21 22 19 14 11 11 8 9 12 10 11 13 10 13 13 9 17 16 23 71 104 98 98 103 98 100 101 98 100 101 95 76 53 55 84 102 101 99 95
72 82 88 89 88 84 81 84 92 90 74 63 56 49 52 60 64 71 75 71 57 38 30 31 30 31 33 43 63 71 65 63 59 47 38 37 42 55 57 38 23 25 26 25 29 29 25 23 22 22 23 22 17 12 12 11 9 12 11 10 12 10 11 12 8 15 15 16 58 102 100 96 102 99 99 102 100 101 101 96 87 71 62 78 98 103 102 102
75 87 89 88 88 83 84 92 99 96 79 64 56 51 53 62 70 76 80 79 67 45 33 32 31 31 33 41 58 69 67 66 65 52 39 35 38 46 55 45 28 27 29 29 32 33 29 24 22 24 24 26 22 13 12 13 10 11 11 9 11 10 10 12 9 13 16 13 44 92 104 96 100 101 99 101 101 102 101 98 97 92 81 83 100 108 102 101
81 89 89 90 88 83 88 97 101 99 83 64 57 53 53 62 74 80 82 84 77 55 36 32 32 32 34 39 51 65 69 65 63 57 46 39 36 39 47 44 32 28 32 34 35 36 32 26 24 28 29 28 26 18 13 13 12 11 11 10 11 10 10 12 10 11 16 14 28 69 98 101 99 100 100 99 99 101 100 99 101 101 94 86 90 100 101 101
86 92 92 92 90 85 90 99 101 99 83 65 58 56 55 62 75 87 87 86 85 68 42 33 33 32 34 37 45 60 70 67 62 59 52 43 37 36 40 41 34 30 31 37 41 41 38 31 27 33 35 30 27 23 15 13 12 11 11 10 10 11 11 12 12 9 13 17 20 44 85 105 100 99 102 99 98 101 100 99 99 99 97 91 83 82 89 100
94 95 94 95 93 89 93 99 101 97 82 66 60 58 60 65 78 95 95 86 90 81 52 35 34 33 33 36 41 55 69 71 64 60 57 49 40 36 36 38 36 31 31 36 40 42 42 37 32 38 42 33 28 26 18 12 12 10 10 10 9 11 12 11 13 11 10 17 20 34 72 102 102 98 102 102 99 100 101 99 95 94 98 100 94 85 85 96
100 98 97 99 97 95 98 99 101 96 81 68 62 61 69 74 81 98 99 85 90 92 65 40 34 34 34 36 39 50 65 71 66 62 61 54 46 38 34 35 37 33 31 34 37 38 38 35 35 45 49 38 27 24 19 13 12 10 10 10 9 11 12 11 12 12 10 14 19 27 50 84 103 103 100 101 100 98 101 100 94 95 101 101 100 97 94 98
Wind_Speed
16 16 17 17 17 17 18 18 18 18 17 17 16 16 15 15 15 15 16 16 16 16 16 17 17 18 18 20 21 23 25 27 30 32 35 36 37 38 38 38 38 37 37 37 37 37 37 36 35 34 33 32 31 31 29 27 24 22 17 11 11 11 10 8 5 4 4 7 9 12 11 6 8 10 13 16 18 19 20 21 22 23 25 28 28 25 22 20
18 19 19 19 20 20 20 20 20 20 20 20 19 18 18 18 17 17 18 18 18 18 18 19 19 19 19 20 21 23 24 26 28 30 33 35 37 38 39 39 39 39 38 38 39 39 39 38 36 35 35 34 33 32 31 29 26 22 18 13 12 12 12 9 7 5 6 7 10 12 11 9 9 9 12 14 16 18 19 20 21 22 24 27 29 27 24 22
20 20 21 21 22 22 22 22 23 23 22 22 22 22 21 20 20 20 20 19 20 20 20 21 21 21 21 21 21 22 24 26 27 29 32 34 36 38 39 40 40 40 40 40 40 41 41 40 38 37 36 36 35 34 33 31 28 24 21 16 13 14 14 11 8 6 7 8 10 11 9 9 11 8 10 12 14 17 18 19 20 21 23 26 28 28 26 23
21 21 22 23 23 24 24 24 25 25 25 25 24 24 24 24 23 22 22 22 21 21 22 22 23 23 23 23 22 23 25 26 27 29 31 33 35 37 39 40 41 41 41 41 41 42 42 40 39 38 38 38 37 36 35 33 30 27 24 19 16 17 16 14 10 9 10 11 12 12 9 8 11 9 8 10 13 15 17 18 19 21 23 25 28 29 27 24
22 23 23 24 25 25 26 26 26 27 27 27 27 27 27 26 26 26 25 24 24 23 23 24 24 25 25 25 24 25 25 27 28 29 31 33 34 36 38 40 42 43 43 43 42 43 43 41 40 40 39 40 39 38 36 35 32 29 25 20 19 19 17 16 14 14 14 14 14 14 10 10 9 6 8 9 12 13 15 17 18 20 22 24 27 28 28 26
24 24 25 25 26 27 27 27 28 28 28 29 30 30 29 29 29 29 28 28 27 27 26 26 26 27 27 27 26 27 27 28 30 30 31 34 35 36 38 40 42 44 44 44 44 44 44 43 42 41 41 41 41 40 38 36 34 32 27 21 21 22 19 17 17 17 16 14 13 12 10 11 8 5 8 8 10 12 13 15 17 19 21 23 26 28 28 27
25 25 26 27 27 27 28 28 29 29 30 30 31 31 32 32 32 32 31 31 30 30 30 29 29 29 29 29 28 29 30 30 31 31 33 34 35 36 37 39 42 45 45 44 45 45 45 45 44 43 43 43 42 42 40 38 36 33 28 23 24 23 21 21 21 20 17 15 13 11 12 12 8 5 7 8 9 10 12 14 16 18 20 22 24 27 28 28
27 27 28 28 28 29 29 29 30 30 31 32 32 33 33 34 34 34 34 34 34 33 33 32 32 32 32 31 30 32 33 33 34 34 34 34 35 35 36 38 40 44 46 46 46 46 47 47 46 45 45 45 44 44 42 41 38 35 31 27 25 22 22 24 23 22 19 16 14 14 15 15 11 5 6 8 7 8 10 13 15 17 18 21 23 26 28 28
28 29 29 30 30 30 31 31 31 31 32 33 33 34 35 35 36 36 36 36 36 36 36 35 35 35 35 33 33 33 35 36 37 38 36 34 34 35 36 37 39 42 45 47 47 47 49 48 47 47 47 47 46 45 44 42 39 36 33 31 27 22 23 25 24 23 21 17 15 15 17 16 14 7 5 7 6 7 9 11 14 16 17 20 22 25 27 28
29 29 30 31 31 31 32 32 33 33 33 33 34 35 36 36 37 38 38 38 38 38 38 38 38 38 37 37 35 35 37 39 40 41 40 35 34 35 36 37 39 41 44 47 48 48 49 49 49 49 49 49 48 47 46 44 41 39 35 31 27 22 23 26 24 24 22 19 17 17 18 17 15 9 6 7 5 5 7 10 12 15 16 18 21 23 26 28
30 30 30 30 31 32 33 33 34 35 35 35 35 36 37 37 38 39 40 40 40 41 41 41 41 40 40 39 38 37 40 42 41 42 42 38 36 36 37 38 39 41 44 47 49 49 50 50 50 51 51 51 50 48 47 46 43 42 37 33 28 23 25 28 26 26 24 22 21 20 20 17 14 12 9 7 4 4 6 8 11 14 15 17 19 22 24 27
31 31 30 30 31 32 33 34 35 36 36 37 37 38 38 39 40 40 41 41 42 42 42 42 42 42 42 41 40 39 41 42 41 43 44 42 39 38 39 40 40 42 44 47 50 50 50 51 52 53 53 53 53 50 49 48 46 44 40 35 32 25 25 29 29 29 28 27 26 25 23 18 14 14 12 9 5 3 4 6 9 12 14 16 18 20 23 25
31 31 31 32 32 33 34 36 37 37 38 38 39 39 40 41 41 41 41 42 42 43 43 43 43 43 43 42 41 40 40 41 42 44 44 44 43 42 41 42 41 43 45 48 50 52 52 52 53 54 55 56 55 53 51 50 48 46 42 37 36 31 28 31 31 30 29 28 28 26 24 19 15 16 15 10 6 3 2 4 7 10 12 14 16 18 21 24
32 32 33 33 34 35 36 37 38 39 39 39 40 40 41 41 41 42 42 42 42 43 43 43 43 43 42 42 41 41 41 42 43 45 45 44 45 45 44 44 44 44 46 49 51 53 54 54 55 56 58 58 58 55 53 52 50 49 46 40 39 37 33 33 32 30 30 29 28 26 25 22 19 19 17 12 8 4 2 3 5 8 11 13 14 17 19 22
34 35 35 36 37 38 39 39 40 40 40 40 41 41 41 41 41 41 41 41 42 42 42 42 42 42 42 42 42 43 44 44 45 47 47 47 46 47 47 47 47 46 48 50 52 53 55 56 56 57 60 60 59 57 55 54 52 50 49 41 39 40 37 34 30 30 32 31 29 26 26 25 21 19 17 13 9 6 3 2 4 6 9 11 13 15 17 20
36 37 37 38 39 40 41 41 41 41 41 41 41 41 40 40 40 40 40 41 41 41 41 41 42 42 43 43 45 47 48 48 48 49 51 51 50 50 51 50 50 49 49 51 53 54 56 58 58 59 62 62 61 59 57 56 54 52 50 43 41 42 38 33 30 30 32 32 31 28 27 26 21 17 15 14 12 8 5 3 3 5 8 9 11 13 15 18
38 39 40 41 41 42 42 42 41 41 41 41 40 40 39 39 39 39 40 40 40 40 41 41 43 44 45 47 49 51 51 51 51 52 54 55 55 54 54 54 54 53 52 53 55 56 57 59 60 61 63 63 62 61 60 58 56 54 52 47 43 43 41 36 31 31 32 31 30 29 28 25 21 17 13 14 14 11 7 5 3 3 6 7 9 11 13 16
40 41 42 43 43 43 42 42 41 41 40 39 38 37 37 38 38 38 39 39 40 41 42 43 45 48 50 52 54 55 54 53 54 55 56 58 60 58 58 58 57 56 55 55 56 57 58 61 62 63 64 64 63 64 63 60 58 56 54 49 45 44 44 40 34 31 31 29 30 31 29 26 22 18 13 13 15 12 9 6 4 2 3 5 7 9 11 13
43 44 44 45 44 43 42 41 40 39 38 37 36 35 36 37 38 38 38 39 41 43 45 47 49 52 55 56 58 57 56 55 56 57 58 60 62 62 61 61 60 59 58 58 58 59 60 62 64 65 66 66 66 66 65 62 60 58 55 50 46 45 45 42 36 31 30 29 30 31 30 28 25 21 15 13 15 14 11 8 5 3 2 3 5 7 9 11
45 46 46 45 44 42 41 40 39 37 35 34 33 34 35 36 37 38 39 41 43 46 49 52 54 56 58 59 59 58 57 56 57 58 60 62 64 65 64 64 63 62 62 61 61 62 62 64 66 67 68 68 68 69 67 64 61 59 57 53 49 47 46 44 38 31 30 31 30 30 31 30 27 22 17 14 15 15 12 9 7 5 3 1 3 5 7 10
47 47 46 44 42 41 40 38 36 34 32 32 32 33 35 36 38 40 41 44 47 50 52 55 57 59 60 60 58 56 56 55 56 58 60 63 65 67 67 66 66 65 65 66 65 64 64 65 68 70 70 70 70 70 69 66 62 60 59 57 52 49 48 47 40 33 33 32 31 31 32 31 29 24 20 17 14 14 12 11 10 8 5 2 1 4 6 8
47 46 44 42 40 39 38 35 32 30 30 31 32 34 36 38 40 43 45 47 49 52 55 56 58 59 58 57 55 53 53 53 54 57 59 63 66 68 69 69 70 69 69 69 67 66 66 66 70 72 71 72 72 71 70 68 65 63 61 59 56 51 49 47 42 38 36 33 32 32 32 31 29 25 23 20 15 13 14 13 13 11 8 5 2 3 5 6
46 44 42 40 39 38 35 31 29 28 29 30 32 34 37 40 42 45 48 51 53 55 57 57 57 57 55 53 51 50 50 50 52 55 58 62 66 69 71 72 73 73 72 71 69 68 69 70 72 74 73 73 73 72 72 70 68 66 63 61 59 54 50 48 45 41 37 34 33 33 32 30 28 26 25 22 18 15 17 17 15 13 10 7 4 4 4 5
44 42 40 39 37 34 31 28 27 28 30 31 34 36 38 41 44 48 51 53 55 56 56 55 54 53 52 50 49 48 48 49 51 54 57 62 66 70 73 75 76 76 75 73 72 72 73 74 75 76 75 75 75 74 74 72 70 68 66 64 60 54 51 50 47 41 37 35 35 34 32 29 28 28 27 24 20 17 18 20 18 15 12 9 6 5 4 5
42 39 38 37 34 30 27 25 27 29 31 33 36 38 40 43 46 50 54 56 57 56 55 53 52 51 49 47 47 47 47 48 48 49 53 58 64 70 74 78 79 79 78 76 76 76 77 77 76 77 77 77 78 77 75 75 73 71 70 67 62 55 53 53 50 42 36 34 35 35 33 29 29 30 29 26 23 20 18 19 19 17 14 10 7 6 5 5
39 38 36 34 30 26 24 25 28 30 33 35 37 39 42 45 48 53 57 58 57 54 53 52 50 48 46 45 45 45 44 44 43 43 48 54 60 66 73 79 82 83 82 80 79 79 80 79 78 79 79 79 79 78 78 77 76 73 72 70 64 57 56 56 52 44 37 35 35 36 34 30 30 31 31 29 26 24 20 18 19 18 15 12 10 7 5 5
37 36 34 30 25 23 24 27 30 32 35 37 39 42 44 47 51 55 58 58 55 53 52 50 47 45 43 42 42 41 39 39 38 39 44 51 56 62 70 79 84 85 84 81 80 81 82 82 80 80 80 81 80 79 79 80 78 75 73 73 67 59 58 57 52 45 40 37 36 37 36 33 31 31 31 30 28 27 24 19 19 19 17 14 12 9 7 6
36 33 29 25 22 22 25 28 32 34 37 39 41 44 46 50 53 56 57 54 53 52 51 48 44 42 40 38 37 36 35 35 35 36 41 47 53 59 67 78 85 87 85 83 82 83 85 83 82 81 82 82 81 81 82 81 80 77 75 75 71 63 60 58 52 47 43 39 37 38 38 35 33 33 32 31 29 29 27 22 19 19 18 16 14 11 9 7
33 29 25 22 20 23 27 30 33 36 39 41 44 46 49 52 55 57 55 52 52 52 48 45 41 38 36 34 33 32 31 32 32 34 37 44 51 57 64 75 85 88 86 85 85 85 85 85 84 84 84 84 84 83 83 83 82 80 78 77 73 66 62 59 54 50 44 40 38 39 40 37 36 36 35 33 30 29 29 25 21 19 18 17 16 14 12 9
29 25 22 20 20 24 28 32 35 38 41 43 46 48 51 54 57 57 54 52 54 52 46 41 38 35 32 30 29 29 29 29 31 33 36 41 49 55 62 72 83 88 88 87 87 86 86 86 85 85 85 86 86 85 84 84 84 82 80 79 76 69 62 59 57 51 45 43 41 40 40 38 37 38 37 36 34 32 31 27 23 21 19 18 17 16 14 12
24 22 19 19 22 26 29 33 37 40 42 45 48 50 53 56 58 56 54 53 54 51 45 39 34 31 29 27 26 26 27 28 29 32 34 39 47 54 60 69 81 88 89 90 89 88 88 87 86 85 86 87 88 87 86 86 85 83 81 79 78 74 65 60 59 53 49 48 44 40 40 40 40 40 39 39 39 37 34 30 27 23 20 19 19 17 16 14
21 19 18 20 23 27 31 35 39 42 44 47 49 52 55 58 59 56 54 54 53 48 43 37 31 28 26 25 24 23 24 26 27 30 33 37 45 53 60 68 79 87 91 92 91 90 90 89 87 86 87 88 87 87 86 87 87 85 83 80 79 77 70 65 61 56 52 51 46 42 40 40 42 42 39 39 39 38 36 32 29 26 22 21 21 20 18 16
19 17 18 21 24 28 32 36 40 43 46 48 51 54 57 59 60 57 54 55 54 47 40 36 31 26 24 22 21 21 21 23 25 27 32 37 43 51 58 67 78 88 93 93 92 92 91 89 88 87 87 88 87 85 86 87 87 85 84 82 80 78 74 69 65 61 56 51 46 43 41 40 42 43 41 40 39 37 36 33 30 29 26 23 24 24 21 18
18 17 19 22 25 29 34 38 42 45 48 50 53 55 59 60 60 58 56 56 54 46 39 34 29 25 22 20 19 19 19 20 21 25 30 35 41 49 58 66 77 88 93 93 93 93 92 90 88 87 87 87 86 85 87 88 87 87 86 84 81 79 77 72 68 66 63 56 47 44 43 41 42 43 43 42 40 38 35 32 31 31 28 24 25 27 25 21
16 17 21 23 26 30 35 39 43 46 49 52 54 57 60 61 60 57 56 57 54 46 38 33 27 22 19 17 16 17 17 17 18 22 27 32 39 47 57 65 76 86 92 93 93 92 92 91 90 89 89 87 85 86 89 89 89 89 86 83 82 80 79 75 71 70 71 64 52 46 45 42 42 44 45 44 42 39 37 34 33 32 29 26 24 27 27 25
16 19 22 24 27 32 36 40 44 47 50 53 55 59 60 61 60 57 57 58 54 45 38 32 25 20 17 14 13 14 15 14 15 20 24 29 36 44 53 62 73 84 91 93 92 91 91 91 91 91 92 91 88 88 89 89 90 90 87 84 83 81 80 78 74 72 72 67 57 51 47 44 43 44 45 45 43 41 39 37 36 34 31 28 25 26 28 25
17 20 22 25 29 33 37 41 44 47 50 53 56 59 61 61 60 57 57 58 53 45 38 31 24 18 15 12 12 12 12 12 14 18 22 26 34 42 51 60 71 82 89 92 92 92 92 92 92 91 92 91 90 89 90 90 90 91 89 86 84 82 81 80 77 74 70 65 60 55 51 47 45 44 45 46 44 43 41 40 38 34 32 29 25 26 28 25
19 21 23 26 30 34 38 42 45 48 51 54 57 60 61 61 59 57 57 57 53 45 37 30 23 17 13 11 11 11 10 10 13 18 22 27 33 41 50 59 70 80 88 92 93 92 93 92 90 89 90 89 88 89 91 91 91 91 90 87 85 84 84 83 81 77 70 65 61 57 53 51 48 45 46 47 45 44 43 42 39 35 34 32 29 27 27 24
21 22 24 27 31 35 38 42 45 48 51 55 57 59 61 61 58 56 57 57 53 45 37 29 21 16 11 9 10 10 9 11 13 17 22 26 33 40 49 59 69 79 87 92 93 92 93 92 89 89 90 89 89 91 92 93 93 92 90 88 87 86 85 84 83 78 71 66 63 59 55 53 50 48 47 47 46 46 45 44 41 37 37 37 34 31 28 25
22 24 26 29 32 35 39 42 45 48 52 55 57 59 61 60 58 56 57 57 52 44 36 28 19 14 10 9 9 9 9 11 13 15 19 25 32 41 49 57 68 80 88 92 94 93 93 92 90 91 91 91 91 93 94 95 94 93 90 89 88 88 87 85 83 79 72 68 65 62 57 54 52 50 50 49 48 47 46 46 43 40 39 39 37 33 29 27
23 26 27 30 33 37 40 43 46 49 52 54 57 58 60 59 57 55 56 57 52 44 36 27 18 13 9 8 9 9 9 11 13 15 17 23 31 40 48 56 66 78 87 91 92 92 92 91 92 92 92 93 94 95 95 96 95 93 91 89 88 87 88 87 84 80 74 69 67 65 61 57 54 52 52 50 49 48 48 48 47 43 40 39 38 34 31 29
23 26 29 32 34 37 40 43 46 49 51 53 55 57 57 57 55 54 55 56 52 44 36 27 18 12 8 9 10 9 8 10 14 16 18 22 29 39 48 56 65 75 84 89 90 90 90 91 91 91 91 92 93 93 94 96 96 95 93 90 89 87 87 87 86 83 78 72 69 67 64 61 57 54 53 52 50 48 48 49 49 47 43 40 38 36 34 32
22 26 29 32 34 37 40 43 46 48 50 53 54 55 56 55 53 52 54 55 52 44 36 29 19 12 9 9 9 9 8 10 13 16 18 22 28 37 47 56 64 73 80 87 90 90 90 90 90 89 89 89 89 89 92 95 96 96 94 91 91 90 89 89 88 86 82 76 71 68 66 64 61 57 53 52 49 47 48 49 50 48 44 42 41 40 37 34
22 26 29 31 34 37 40 43 46 48 49 51 53 54 55 53 51 51 53 54 52 45 36 29 21 13 10 9 9 8 8 9 12 16 19 22 27 35 45 54 63 71 79 87 91 90 90 91 91 90 89 88 89 89 91 94 94 93 93 92 92 93 91 89 88 87 85 80 74 70 68 66 63 59 54 51 49 46 47 49 49 47 44 43 44 42 39 35
23 27 29 32 35 37 40 43 45 47 49 50 51 52 53 52 49 50 53 53 52 45 37 30 23 15 9 8 10 9 9 10 13 16 20 23 25 32 42 53 63 71 80 87 90 90 90 91 91 90 89 90 90 90 91 93 93 92 92 91 91 93 92 91 90 88 86 84 77 72 69 66 63 60 54 51 49 48 49 50 51 49 45 44 45 43 39 36
25 28 30 32 35 37 40 42 44 47 48 49 50 51 52 51 48 50 53 54 52 47 38 30 24 17 9 8 11 12 10 11 13 17 21 24 27 31 40 52 63 72 80 86 88 89 91 92 91 90 89 90 91 91 92 93 94 93 94 93 92 94 94 91 90 88 87 85 80 73 69 66 63 59 54 52 51 51 52 52 51 49 45 44 45 43 39 36
26 28 31 33 35 38 40 41 43 46 48 49 49 50 51 50 48 50 53 54 53 49 41 32 25 18 10 9 12 13 10 9 12 18 22 25 30 33 39 49 60 69 77 83 86 88 91 92 91 90 89 89 91 93 93 94 95 95 95 94 93 93 92 89 88 87 85 85 83 77 70 65 62 59 54 52 53 53 53 52 49 47 45 46 46 44 41 40
27 29 32 34 36 38 39 41 43 45 48 48 49 49 50 48 47 49 53 54 53 50 43 34 26 19 11 10 13 13 11 10 12 16 20 25 30 35 40 48 58 67 75 82 86 88 91 92 91 89 89 90 92 95 95 94 95 94 93 93 92 91 90 89 88 87 86 87 85 80 73 67 64 60 55 54 54 54 53 53 50 47 47 48 48 46 43 43
29 31 33 34 36 37 38 40 41 44 47 47 48 49 48 46 46 48 52 54 53 51 46 37 27 19 12 10 13 15 13 12 13 14 18 23 28 35 41 49 57 66 74 80 84 87 90 92 91 89 90 92 93 94 95 94 93 93 93 92 91 89 88 88 89 89 89 89 87 82 77 73 69 64 59 57 58 57 55 55 55 52 50 49 49 48 45 43
30 32 34 35 36 37 38 39 40 43 45 46 47 48 47 45 46 49 52 53 53 52 48 39 30 21 14 11 13 16 15 14 14 14 17 21 26 33 41 48 57 65 74 80 83 86 89 91 91 90 91 93 93 93 95 94 92 92 92 92 91 89 87 88 90 91 90 90 88 86 82 79 75 70 65 61 60 59 58 58 59 57 54 51 50 49 47 44
32 33 35 36 37 37 38 38 40 43 45 45 46 48 47 45 45 49 52 52 52 52 49 41 32 23 15 12 14 16 17 17 15 14 15 19 24 30 38 46 54 64 72 80 84 87 90 91 91 91 92 94 94 94 95 94 93 93 93 93 92 90 88 89 91 91 90 89 89 89 86 82 77 74 70 65 62 61 59 60 60 58 55 52 49 48 47 45
33 34 35 36 37 38 38 39 41 43 44 44 45 47 47 46 46 48 52 52 51 51 50 43 34 25 17 13 14 16 18 18 17 14 14 17 21 27 34 42 51 61 71 79 86 89 92 93 92 91 92 94 95 94 94 93 93 93 93 94 93 91 90 90 91 92 91 91 91 91 89 84 80 76 73 69 65 63 60 59 60 58 55 54 51 49 47 45
Wind_Direction
300 300 299 299 297 297 295 294 293 291 289 287 285 283 280 276 272 269 266 264 263 261 260 260 258 254 250 249 250 250 248 244 240 236 235 233 231 230 229 227 223 220 218 218 216 216 217 214 210 207 207 207 205 205 206 208 204 198 197 190 191 203 217 210 171 157 240 264 267 277 283 310 345 5 18 20 25 21 17 18 18 21 22 24 29 30 28 27
299 298 298 297 296 295 295 294 293 292 291 289 288 286 283 280 276 272 269 266 263 261 258 258 257 255 253 250 249 249 249 247 243 240 236 233 231 230 229 227 224 220 217 216 216 215 216 215 211 206 206 206 205 204 205 207 204 199 201 195 187 200 212 199 170 177 219 247 255 264 268 283 316 356 17 18 26 22 18 17 17 21 22 22 27 31 30 28
295 295 294 294 293 293 293 292 291 290 290 289 288 286 285 282 279 276 272 269 265 263 260 258 256 254 253 251 250 248 248 247 245 243 238 233 232 230 230 229 226 222 217 215 215 214 215 214 211 207 205 205 205 204 205 206 203 199 199 197 187 199 203 177 165 196 210 227 244 254 252 267 297 335 9 17 25 23 19 17 16 22 24 22 25 30 31 29
293 292 291 290 290 290 290 290 290 290 289 287 286 285 284 282 280 278 275 272 269 266 262 259 257 255 253 251 251 249 249 248 245 244 241 236 233 230 229 228 227 224 218 214 214 214 213 213 211 208 205 205 205 204 205 205 204 201 198 195 188 195 192 167 176 213 217 220 232 245 250 272 294 324 357 13 25 22 18 17 17 22 25 22 24 29 31 31
292 292 291 290 290 289 288 288 288 288 288 287 286 284 283 282 280 279 277 275 273 270 266 262 259 256 254 252 251 250 250 249 246 244 242 239 234 230 228 227 227 225 221 215 213 213 212 211 210 208 206 205 206 204 205 204 203 202 197 191 186 192 189 173 183 203 211 218 230 246 255 266 281 326 341 359 25 20 16 17 16 21 26 24 23 28 30 31
293 292 292 291 290 289 288 287 286 286 285 285 285 284 282 281 280 279 278 276 274 272 268 265 261 258 255 252 250 250 249 249 248 244 243 241 236 231 228 226 226 226 222 217 213 211 210 209 208 208 206 206 206 204 205 204 203 202 197 191 185 188 190 182 185 192 203 216 230 249 249 247 260 318 325 344 20 16 14 16 15 20 26 26 24 27 30 31
293 292 291 291 290 289 288 288 287 285 284 283 283 282 282 281 280 278 277 276 274 273 270 268 264 261 258 254 251 249 247 248 249 246 242 242 239 235 230 227 226 226 224 219 215 211 209 208 206 207 206 207 206 205 204 204 204 201 199 198 188 184 190 189 188 189 197 212 221 236 236 238 259 302 314 330 8 14 12 13 14 18 24 26 25 27 30 31
292 292 292 290 289 288 288 287 286 285 284 283 282 281 280 280 279 278 276 275 274 272 271 268 266 263 260 256 252 249 247 247 247 246 243 242 242 238 234 229 226 226 225 221 217 212 209 206 205 205 207 207 207 206 204 203 204 200 200 203 193 187 193 194 194 192 194 206 216 229 232 239 256 275 299 315 355 14 7 12 12 15 23 26 26 27 30 32
292 293 292 291 290 288 288 287 286 285 284 283 282 281 280 279 278 277 276 275 273 272 270 268 266 264 261 258 254 250 248 246 245 245 242 240 241 240 237 232 227 226 226 223 219 214 209 205 203 203 206 208 207 207 205 203 203 199 200 202 194 189 196 198 198 197 194 200 215 226 225 234 250 251 271 299 345 10 2 12 10 11 20 25 27 27 31 33
292 293 293 292 290 288 288 287 286 286 284 283 282 281 280 279 278 276 275 274 273 272 270 268 266 264 261 258 256 253 250 248 245 246 244 238 238 240 238 235 230 226 226 225 221 216 211 205 202 203 205 207 207 208 206 203 203 199 199 201 194 192 201 203 200 197 196 200 209 218 220 232 246 238 239 277 325 1 359 9 8 10 17 23 27 27 31 34
294 294 293 291 290 288 288 287 287 286 286 285 284 283 281 280 278 276 275 274 273 271 269 268 266 264 261 259 256 253 252 250 247 246 245 240 235 237 238 235 232 227 225 225 222 217 212 206 202 202 204 206 207 208 206 203 203 200 198 198 193 195 203 202 200 199 197 200 203 209 219 231 241 233 231 255 296 344 354 4 7 8 13 20 26 28 31 35
295 295 293 291 290 289 288 287 287 287 287 287 286 285 283 281 279 277 275 274 272 270 269 267 265 263 261 259 257 253 252 252 249 246 245 242 236 233 235 235 232 228 225 223 222 218 213 207 203 202 203 205 207 207 206 204 202 200 198 198 192 193 202 201 202 202 199 200 203 205 212 222 236 237 235 245 266 314 345 359 3 8 12 16 23 28 31 35
296 296 294 292 291 290 289 289 288 288 288 288 287 285 283 281 280 278 276 274 272 270 268 266 265 263 262 260 258 254 252 251 250 246 243 241 238 233 232 234 232 229 226 222 220 218 214 209 204 203 203 205 207 206 206 205 202 199 197 198 193 189 198 202 203 206 204 204 207 208 208 215 234 238 234 238 246 266 318 346 356 6 11 13 20 27 30 35
298 297 296 294 293 292 292 291 291 290 289 288 287 285 283 282 280 278 276 274 272 270 268 267 265 264 263 261 259 256 253 250 250 248 244 240 239 236 231 232 232 230 227 223 219 217 214 209 205 203 203 206 206 205 205 205 203 199 196 197 197 192 194 200 204 207 208 208 210 212 209 211 228 234 232 237 240 243 272 321 345 2 8 12 18 24 30 35
300 299 298 297 296 295 294 293 293 292 290 289 287 285 283 282 280 278 276 274 272 270 269 268 267 265 263 261 259 257 255 252 250 250 248 243 239 238 234 231 231 230 228 225 219 216 214 210 206 204 204 206 205 203 205 206 204 201 197 197 200 197 193 196 203 208 209 209 210 213 213 212 222 230 231 236 244 247 242 285 327 357 4 10 18 23 29 35
300 300 299 299 298 298 297 296 295 293 291 289 287 286 284 282 280 277 275 274 272 271 270 270 268 267 265 263 261 259 257 254 253 251 250 248 243 239 236 232 231 230 228 226 221 216 213 210 207 204 204 205 204 203 205 206 204 201 198 199 202 202 197 194 201 208 210 211 210 213 216 215 220 228 227 229 239 246 237 243 298 349 360 8 18 23 29 34
302 302 302 302 301 301 299 298 296 294 292 290 288 286 284 281 279 277 276 275 274 274 273 273 272 271 269 267 265 262 260 258 256 253 250 249 246 241 238 234 231 229 227 226 222 216 213 211 208 204 204 204 204 204 205 205 204 201 199 200 204 204 200 195 198 205 209 211 212 213 215 214 218 223 227 233 235 234 231 233 255 339 357 6 19 25 29 34
304 304 304 304 304 303 301 299 297 295 293 291 289 286 283 281 279 278 278 278 278 278 278 277 276 275 273 272 269 267 264 261 257 253 249 246 244 240 237 234 231 228 226 225 223 217 212 211 208 205 204 204 204 205 206 205 203 201 198 201 204 203 200 196 196 203 207 210 213 214 214 212 215 216 220 239 241 230 220 225 239 296 352 1 19 28 33 36
306 306 306 306 305 304 301 299 297 295 293 291 288 285 283 281 281 282 282 283 283 283 282 281 280 279 277 275 273 271 267 262 256 252 247 243 241 238 235 232 229 226 224 222 222 218 212 210 209 206 203 203 205 205 205 204 204 202 198 199 203 202 198 195 194 200 204 207 212 216 214 210 212 214 210 228 242 229 214 217 225 238 311 353 24 33 38 41
308 308 308 307 306 304 302 300 298 296 293 290 287 285 284 284 285 286 286 287 287 287 286 285 283 281 280 277 275 272 267 261 254 249 245 240 238 236 233 230 228 225 222 220 220 218 212 210 210 207 203 202 204 205 205 204 203 202 199 199 201 200 198 193 191 196 202 204 209 214 212 208 210 212 203 209 233 228 211 210 214 217 243 312 39 45 45 47
309 309 308 308 306 304 302 301 299 296 292 289 287 287 287 288 289 290 291 291 291 290 289 287 286 285 282 280 276 272 266 259 253 247 243 239 236 234 231 229 226 223 220 218 218 217 213 210 210 208 203 202 203 204 204 204 202 200 199 200 201 200 198 194 191 196 203 205 207 212 213 209 207 208 202 198 218 230 219 211 210 210 213 215 87 68 60 54
309 310 309 308 306 305 304 302 299 294 291 290 290 291 292 294 295 296 296 295 294 294 293 292 290 288 285 282 277 272 265 258 252 246 241 237 234 231 228 226 225 222 218 216 215 216 214 212 211 208 203 201 203 204 204 204 201 200 200 201 202 201 198 195 193 197 203 205 206 210 212 208 203 204 204 197 201 226 231 218 210 208 204 200 171 98 76 67
310 310 310 308 307 306 305 301 297 293 292 292 293 295 296 298 300 301 301 301 300 298 297 295 293 290 287 283 278 272 266 259 253 247 242 236 232 228 225 223 222 220 217 214 212 213 214 212 210 208 203 200 202 203 204 203 201 200 201 202 203 201 197 195 194 195 201 204 204 207 210 207 202 202 206 202 198 215 232 225 212 206 203 198 180 133 98 84
311 311 310 308 307 307 303 299 296 294 294 296 297 299 301 304 306 306 306 305 304 303 301 298 295 293 290 285 280 274 268 263 257 250 242 236 231 226 223 220 219 218 216 211 209 210 213 212 209 207 202 199 201 203 204 203 200 199 201 202 202 199 195 194 192 191 197 200 200 204 208 208 204 203 208 206 199 206 223 222 212 206 201 194 184 154 120 102
312 311 310 309 308 305 301 298 296 296 298 300 302 304 307 310 311 311 310 308 308 307 304 301 298 295 291 286 281 276 271 265 258 249 240 233 228 223 219 217 215 215 214 210 206 208 211 211 209 206 202 199 200 202 203 203 200 199 200 202 201 197 194 194 191 188 192 195 198 202 205 206 204 205 207 206 201 202 212 217 212 208 198 189 186 171 142 121
312 311 310 309 306 302 300 298 298 299 301 303 306 309 311 314 315 315 315 313 312 309 306 304 301 297 291 286 282 276 271 263 255 245 236 229 224 219 215 213 212 212 212 209 205 205 209 210 208 205 202 199 199 201 202 202 201 199 200 202 201 196 194 195 190 187 191 196 198 201 202 202 203 205 207 207 205 202 204 208 208 206 197 186 186 181 163 141
312 311 309 307 303 302 300 300 301 303 305 308 311 314 317 319 320 319 318 316 314 311 309 306 303 298 292 286 281 275 268 260 252 242 232 225 220 216 212 209 208 208 209 207 204 204 207 209 207 204 201 199 199 201 202 201 201 199 200 202 201 196 194 194 191 190 195 200 199 199 199 198 199 202 204 207 208 206 204 202 203 203 196 188 186 184 178 163
312 310 307 304 302 303 302 303 305 308 310 313 317 319 322 323 322 322 320 318 316 315 313 309 304 299 292 285 278 271 264 258 249 240 231 224 218 214 211 207 204 205 205 205 204 203 205 207 206 203 201 199 199 201 201 201 201 199 199 201 200 196 194 195 193 191 196 200 199 198 197 196 197 198 200 203 207 209 206 200 199 201 198 190 186 186 188 178
311 307 303 302 303 305 305 307 309 312 315 318 321 323 325 325 324 324 323 321 319 318 316 312 306 299 291 283 275 268 262 254 245 237 230 223 217 212 210 205 202 202 202 202 203 202 203 206 205 202 201 200 199 200 201 200 201 200 199 200 200 196 195 195 192 189 193 198 197 196 196 196 197 197 197 200 204 209 210 203 197 199 200 192 186 188 192 189
308 303 301 303 305 306 308 311 313 315 318 321 324 326 326 327 327 327 326 325 325 323 320 315 308 300 292 283 274 266 259 252 242 235 228 221 215 211 208 205 201 199 199 200 201 201 201 204 205 202 200 199 198 199 200 200 201 200 199 200 200 197 194 193 190 188 192 198 197 195 196 197 199 199 198 198 200 204 209 207 200 199 199 193 187 190 196 193
303 300 301 304 307 309 312 315 316 318 321 324 326 327 328 329 330 330 330 330 329 327 323 317 309 301 293 283 273 264 257 250 242 234 227 219 214 209 206 204 200 197 197 198 200 200 200 202 204 202 201 200 198 197 198 199 200 201 200 200 200 198 195 193 190 188 192 198 197 194 195 198 201 202 201 200 201 203 205 206 204 199 196 194 191 193 200 198
298 299 303 306 309 312 316 318 319 321 323 326 328 329 330 331 332 333 333 333 334 331 325 318 311 304 293 282 272 263 255 248 241 233 225 218 213 208 205 202 199 196 196 197 199 199 199 200 201 202 201 200 198 197 198 199 200 201 201 200 201 199 197 196 192 188 190 194 193 192 195 200 204 205 204 203 203 204 205 206 205 198 192 198 201 198 199 200
296 301 305 308 312 317 320 320 321 323 324 327 329 331 333 334 335 335 335 337 337 334 327 319 313 305 292 280 273 266 256 246 238 231 223 216 211 207 204 201 198 196 195 197 198 198 198 199 199 200 200 199 198 197 199 200 200 201 201 200 200 199 198 198 194 189 189 189 190 193 195 199 205 207 206 204 202 203 206 209 208 197 188 196 209 206 200 200
297 303 306 311 316 321 322 322 323 324 326 328 330 333 335 336 337 337 337 340 340 336 329 321 313 304 292 280 273 268 259 245 235 228 221 214 209 206 203 200 198 196 195 196 197 198 197 197 198 199 199 199 198 198 199 200 200 202 202 201 200 199 198 198 194 191 191 191 191 195 196 199 203 205 207 205 202 203 207 210 207 198 187 187 206 210 199 195
300 304 308 314 320 323 324 324 324 325 327 329 332 334 336 338 338 338 339 342 342 337 330 323 313 302 290 279 272 270 263 248 233 224 219 213 208 205 202 199 198 196 195 195 197 198 198 197 197 198 198 198 198 199 199 199 200 201 202 201 200 199 198 198 196 193 195 196 195 194 196 199 201 203 207 207 204 205 208 206 201 199 192 185 199 210 200 193
302 306 311 318 323 325 325 324 325 326 328 331 333 336 338 339 340 340 342 344 343 338 332 325 314 299 286 275 269 269 264 252 234 222 215 210 207 204 201 199 197 196 195 195 196 197 198 198 197 197 197 196 197 198 199 200 200 201 201 201 200 199 199 199 198 197 200 200 197 196 197 200 200 202 207 208 207 207 207 202 197 200 198 187 193 205 199 194
302 307 314 322 325 326 325 325 326 327 329 332 335 337 339 341 341 341 343 345 344 340 334 327 314 297 282 274 270 266 259 251 238 223 211 206 205 202 199 198 197 195 195 195 196 196 197 199 198 197 197 196 196 197 198 199 201 201 201 201 200 199 199 201 201 202 203 202 199 197 198 201 200 202 207 209 207 206 205 201 198 203 203 192 190 198 197 194
304 311 319 325 326 327 326 325 326 329 331 334 336 338 340 343 343 342 344 346 345 342 337 328 315 296 281 272 271 267 252 239 234 225 211 203 203 201 197 196 196 194 194 195 196 196 197 198 198 198 197 197 197 197 197 199 200 202 202 201 200 200 200 201 203 204 204 202 200 198 198 200 200 201 206 209 207 204 204 202 202 206 206 197 191 194 195 197
307 315 323 326 327 327 326 326 328 330 332 335 338 340 342 343 344 344 345 347 346 344 338 330 317 297 279 267 270 273 255 232 226 226 216 204 200 199 197 196 194 193 194 195 195 196 197 197 198 198 198 197 198 198 197 198 200 201 202 201 201 201 200 201 203 204 203 203 201 197 197 200 201 201 205 209 208 205 204 204 204 205 205 202 198 195 196 202
311 319 325 327 327 326 326 327 329 332 334 337 340 341 343 344 345 345 346 347 347 345 340 332 318 294 271 259 265 270 255 232 220 222 218 208 201 198 196 195 194 193 194 195 195 196 197 197 197 199 198 197 199 199 198 198 199 200 201 201 202 202 201 201 203 203 202 202 201 198 198 200 201 201 205 208 209 207 205 204 204 203 203 205 204 199 197 204
315 321 325 326 326 326 328 330 332 334 336 339 341 342 343 345 346 346 347 348 348 346 342 334 318 293 266 245 253 258 248 230 218 215 215 209 202 198 196 194 194 194 194 195 196 197 197 198 198 199 199 198 199 199 198 198 198 200 201 201 202 202 202 202 202 202 201 200 199 199 200 202 201 200 203 207 209 208 206 204 204 204 203 205 206 202 201 205
319 324 325 326 327 328 331 332 333 335 337 339 341 343 344 346 346 347 348 349 349 347 344 336 320 298 263 231 239 250 241 226 217 212 209 208 203 199 196 194 193 194 194 195 196 197 198 199 199 199 200 201 200 199 199 198 198 199 200 201 201 202 203 202 202 202 200 199 199 200 201 202 201 200 201 204 207 208 208 207 206 205 205 205 205 204 204 205
321 323 324 325 327 329 331 332 333 336 338 340 342 343 345 347 348 348 350 351 350 348 345 338 324 300 263 231 232 245 239 223 215 210 206 206 204 200 196 194 192 193 194 195 196 196 198 200 200 200 201 202 202 201 201 200 200 200 201 201 201 202 202 203 202 202 200 198 198 199 200 200 201 200 200 202 205 207 211 213 210 207 206 207 208 207 206 205
319 320 322 325 327 329 331 333 334 336 339 341 342 343 345 347 349 350 352 352 351 349 346 339 326 304 273 236 226 236 234 216 208 207 205 203 203 201 197 194 193 192 194 195 196 195 197 200 200 200 202 202 202 203 203 202 201 201 202 202 203 202 202 202 202 202 201 199 198 198 197 197 199 200 199 200 202 205 211 215 214 209 205 207 210 210 208 206
317 319 322 325 328 330 333 334 335 337 339 341 342 344 346 347 350 353 353 354 353 350 347 339 327 311 285 235 219 223 221 207 200 203 204 201 200 200 199 196 194 193 193 195 196 196 197 200 201 200 202 203 203 203 204 202 201 202 203 204 204 204 203 202 202 202 202 200 198 197 195 195 196 197 197 198 199 202 208 214 215 211 206 205 208 209 208 211
316 320 323 326 329 331 333 335 337 338 340 342 342 345 347 348 351 355 355 354 354 351 348 341 328 314 288 233 218 218 215 205 199 201 202 198 195 196 198 198 196 193 194 195 196 197 198 200 201 200 201 204 204 204 204 203 202 203 204 204 204 204 204 203 202 202 202 201 199 197 195 194 194 195 196 197 198 201 208 213 215 213 208 205 206 206 209 215
318 321 323 326 329 332 334 337 339 339 340 342 342 345 348 349 351 355 355 355 354 352 349 343 330 315 289 237 221 219 211 202 202 205 203 197 194 194 195 198 197 194 194 195 196 198 200 201 201 200 201 204 206 205 205 205 205 204 204 205 205 205 204 204 203 204 203 202 200 198 196 194 194 196 197 198 199 203 208 212 214 212 208 205 205 206 208 212
319 322 323 327 330 333 336 338 340 340 340 341 342 345 348 349 351 355 354 354 355 353 350 345 334 319 293 241 224 218 207 201 205 207 206 201 198 196 194 196 197 195 195 195 196 198 201 201 201 201 202 204 206 207 206 206 206 205 205 206 205 205 205 205 204 204 204 204 202 200 199 197 198 199 199 200 201 203 208 211 212 211 208 206 206 208 210 211
318 321 323 326 330 334 337 338 338 338 339 340 341 344 347 349 351 354 354 354 354 354 351 346 338 323 293 247 225 217 206 203 207 205 204 204 201 200 198 196 196 195 195 196 197 199 201 202 201 201 203 204 206 208 207 207 207 206 205 206 206 205 205 206 206 205 204 204 203 202 203 203 203 203 201 200 201 203 206 211 212 212 212 211 211 213 215 215
318 320 322 326 329 333 337 337 335 336 338 339 341 343 346 349 352 352 352 353 354 354 352 348 341 327 298 255 227 217 207 204 208 204 203 204 203 203 202 199 197 196 196 196 197 199 202 202 201 202 205 206 206 208 209 208 207 206 206 206 205 204 205 207 208 206 205 204 203 204 205 206 206 206 202 200 200 201 206 212 214 215 216 216 219 220 218 218
316 318 321 325 328 332 335 334 333 334 336 338 340 342 345 349 353 351 349 351 353 354 353 350 342 331 306 262 230 217 209 205 206 206 205 206 206 205 205 202 200 198 198 197 198 200 202 203 202 203 206 207 206 208 210 209 207 206 207 207 206 205 205 207 208 208 206 205 205 205 206 206 207 206 203 201 200 199 203 211 215 216 216 215 217 220 219 219
315 317 321 324 327 331 333 332 331 332 335 337 339 342 345 349 352 350 346 349 353 354 354 351 344 336 315 273 235 218 212 208 204 205 209 209 207 207 206 205 203 202 200 199 199 201 203 203 202 203 207 208 208 208 209 210 208 207 207 207 206 206 206 207 208 208 207 206 206 207 207 207 207 206 204 202 201 199 200 207 213 214 212 210 212 215 215 217